Regional Weather Roundup
Issued by NWS Jackson, KY

Home | Current Version | Previous Version | Graphics & Text | Print | Product List | Glossary On
Versions: 1 2 3 4 5 6 7 8 9 10 11 12 13 14 15 16 17 18 19 20 21 22 23 24 25 26 27 28 29 30 31 32 33 34 35 36 37 38 39 40 41 42 43 44 45 46 47 48 49 50
000
ASUS43 KJKL 051610
RWRJKL

EAST KENTUCKY HOURLY WEATHER ROUNDUP
NATIONAL WEATHER SERVICE JACKSON KY
1200 PM EDT SUN JUL 05 2015

NOTE: "FAIR" INDICATES FEW OR NO CLOUDS BELOW 12,000 FEET WITH
NO SIGNIFICANT WEATHER AND/OR OBSTRUCTIONS TO VISIBILITY.

* THESE REPORTS ARE NOT UNDER NWS QUALITY CONTROL AND MAY NOT
  REPORT WEATHER SUCH AS PRECIPITATION AND FOG.

KYZ079-080-083-085-087-088-110-112-115-119-120-051700
...EASTERN KENTUCKY...

CITY           SKY/WX    TMP DP  RH WIND       PRES   REMARKS
JACKSON        LGT RAIN  69  67  93 VRB3      30.11R FOG
LONDON         LGT RAIN  70  65  84 N7        30.08F
SOMERSET*      DRIZZLE   68  68 100 N6        30.10S
MONTICELLO*    PTSUNNY   72  71  96 NW8       30.11S FOG
MIDDLESBORO*   RAIN      71  67  88 S5        30.08F
HARLAN APT*      N/A     68  68 100 SE5       30.09F
HAZARD APT*    LGT RAIN  70  70 100 CALM      30.10F
BLACK MTN*       N/A     68  63  83 E1          N/A
PIKEVILLE APT* CLOUDY    72  68  88 N5        30.11F
BIG SANDY*     CLOUDY    72  70  93 CALM      30.11S
MOREHEAD APT*  LGT RAIN  66  64  94 NE5       30.12F
$$

KYZ035-036-041-042-044-050-067-078-099-051700
...CENTRAL KENTUCKY...

CITY           SKY/WX    TMP DP  RH WIND       PRES   REMARKS
MT STERLING*   LGT RAIN  70  68  94 N3        30.12S
FLEMING/MASON* MOSUNNY   72  61  68 N3        30.12F
DANVILLE*      CLOUDY    70  66  88 CALM      30.11R
RICHMOND*      CLOUDY    70  66  88 CALM      30.10S
LEXINGTON      LGT RAIN  72  66  81 CALM      30.10R
FRANKFORT      CLOUDY    74  61  63 VRB5      30.09S
$$

KYZ091>093-OHZ055-061-077-WVZ005-015-034-035-042-051700
...SOUTHERN OHIO/WEST VIRGINIA...

CITY           SKY/WX    TMP DP  RH WIND       PRES   REMARKS
COVINGTON      CLOUDY    74  60  61 E7        30.12R
COLUMBUS       CLOUDY    75  59  57 SE3       30.12R
DAYTON         CLOUDY    76  61  59 E5        30.14R
WILMINGTON     CLOUDY    73  59  61 E5        30.12S
HUNTINGTON     CLOUDY    71  67  87 CALM      30.10S
CHARLESTON     PTSUNNY   76  67  73 S3        30.10S
PINEVILLE*     CLOUDY    77  69  75 MISG      30.18F
BECKLEY        CLOUDY    72  64  76 SE8       30.18S
BLUEFIELD      CLOUDY    74  64  71 NE9       30.19F
$$

VAZ002-007-008-TNZ017-027-036-066-071-051700
...SOUTHWEST VIRGINIA/EAST TENNESSEE...

CITY           SKY/WX    TMP DP  RH WIND       PRES   REMARKS
WISE*          PTSUNNY   75  63  64 SE6       30.16S
JONESVILLE*      N/A    N/A N/A N/A MISG        N/A
ABINGDON*      MOSUNNY   79  69  70 SE6       30.12F
BRISTOL        MOSUNNY   79  67  66 SE6       30.09F
KNOXVILLE      PTSUNNY   75  67  76 S14       30.07S
OAK RIDGE      LGT RAIN  71  68  90 SW7       30.09S FOG
CROSSVILLE     CLOUDY    70  66  87 NW6       30.12S
NASHVILLE      CLOUDY    75  71  87 NE6       30.10S FOG
$$

...KEY TO REMARKS...
VSB - VISIBILITY IN MILES
WCI - WIND CHILL INDEX
HX  - HEAT INDEX

$$



USA.gov is the U.S. government's official web portal to all federal, state and local government web resources and services.